Weather History for Bellefontaine, OH

Change the Weather History Date:

Tuesday, January 8, 2013

  Actual Average (KDAY) Record (KDAY)
Temperature  
Mean Temperature 31 °F 27 °F  
Max Temperature 39 °F 34 °F 64 °F (1937)
Min Temperature 23 °F 20 °F -11 °F (1968)
Degree Days  
Heating Degree Days 34 38  
Month to date heating degree days 298  
Since 1 July heating degree days 2457  
Cooling Degree Days 0 0  
Month to date cooling degree days 0  
Year to date cooling degree days 0  
Moisture  
Dew Point 27 °F    
Average Humidity 82    
Maximum Humidity 93    
Minimum Humidity 70    
Precipitation  
Precipitation 0.00 in 0.09 in 1.37 in (2008)
Month to date precipitation 0.77  
Year to date precipitation 0.77  
Snow  
Snow 0.00 in 0.20 in 5.00 in (1920)
Month to date snowfall 1.9  
Since 1 July snowfall 7.4  
Snow Depth -    
Sea Level Pressure  
Sea Level Pressure 30.22 in    
Wind  
Wind Speed 9 mph (SSE)    
Max Wind Speed 13 mph    
Max Gust Speed -    
Visibility 10 miles    
Events      
T = Trace of Precipitation, MM = Missing Value Source: NWS Daily Summary

Daily Weather History Graph

Daily Weather History Graph

Search for Another Location

Airport:

Trip Planner

Search our weather history database for the weather conditions in past years. The results will help you decide how hot, cold, wet, or windy it might be!

Date:

Astronomy

Jan. 08, 2013 Rise Set
Actual Time 7:58 AM EST 5:26 PM EST
Civil Twilight 7:27 AM EST 5:56 PM EST
Nautical Twilight 6:53 AM EST 6:30 PM EST
Astronomical Twilight 6:21 AM EST 7:03 PM EST
Moon 4:30 AM EST (1/8) 2:27 PM EST (1/8)
Length of Visible Light 10h 28m
Length of Day
9h 28m
Waning Crescent, 14% of the Moon is Illuminated
Jan 8
Waning Crescent
Jan 11
New
Jan 18
First Quarter
Jan 26
Full
Feb 3
Last Quarter

Hourly Weather History & Observations

Time (EST) Temp. Windchill Dew Point Humidity Pressure Visibility Wind Dir Wind Speed Gust Speed Precip Events Conditions
12:05 AM 28.4 °F 19.1 °F 23.0 °F 80% 30.20 in 10.0 mi South 10.4 mph - 0.00 in   Clear
12:25 AM 28.4 °F 18.5 °F 23.0 °F 80% 30.19 in 10.0 mi SSE 11.5 mph - 0.00 in   Clear
12:45 AM 26.6 °F 16.2 °F 23.0 °F 86% 30.17 in 10.0 mi SSE 11.5 mph - 0.00 in   Clear
1:05 AM 28.4 °F 19.1 °F 23.0 °F 80% 30.17 in 10.0 mi SSE 10.4 mph - 0.00 in   Clear
1:25 AM 26.6 °F 16.8 °F 23.0 °F 86% 30.17 in 10.0 mi SSE 10.4 mph - 0.00 in   Clear
1:45 AM 26.6 °F 16.8 °F 23.0 °F 86% 30.17 in 10.0 mi SSE 10.4 mph - 0.00 in   Clear
2:05 AM 26.6 °F 17.5 °F 23.0 °F 86% 30.18 in 10.0 mi SSE 9.2 mph - 0.00 in   Clear
2:25 AM 26.6 °F 19.1 °F 23.0 °F 86% 30.20 in 10.0 mi South 6.9 mph - 0.00 in   Clear
2:45 AM 23.0 °F 13.9 °F 21.2 °F 93% 30.20 in 10.0 mi SSE 8.1 mph - 0.00 in   Clear
3:05 AM 26.6 °F 17.5 °F 23.0 °F 86% 30.20 in 10.0 mi SSE 9.2 mph - 0.00 in   Clear
3:25 AM 26.6 °F 18.2 °F 23.0 °F 86% 30.21 in 10.0 mi SSE 8.1 mph - 0.00 in   Clear
3:45 AM 24.8 °F 16.1 °F 21.2 °F 86% 30.20 in 10.0 mi SSE 8.1 mph - 0.00 in   Clear
4:05 AM 23.0 °F 13.9 °F 21.2 °F 93% 30.21 in 10.0 mi SSE 8.1 mph - 0.00 in   Clear
4:25 AM 26.6 °F 17.5 °F 23.0 °F 86% 30.20 in 10.0 mi SSE 9.2 mph - 0.00 in   Clear
4:45 AM 26.6 °F 17.5 °F 23.0 °F 86% 30.20 in 10.0 mi SSE 9.2 mph - 0.00 in   Clear
5:05 AM 24.8 °F 16.1 °F 21.2 °F 86% 30.19 in 10.0 mi SSE 8.1 mph - 0.00 in   Clear
5:25 AM 26.6 °F 19.1 °F 23.0 °F 86% 30.19 in 10.0 mi SSE 6.9 mph - 0.00 in   Clear
5:45 AM 28.4 °F 20.4 °F 23.0 °F 80% 30.19 in 10.0 mi South 8.1 mph - 0.00 in   Clear
6:05 AM 26.6 °F 20.0 °F 23.0 °F 86% 30.20 in 10.0 mi SSE 5.8 mph - 0.00 in   Clear
6:25 AM 26.6 °F 19.1 °F 23.0 °F 86% 30.21 in 10.0 mi SSE 6.9 mph - 0.00 in   Clear
6:45 AM 26.6 °F 17.5 °F 23.0 °F 86% 30.21 in 10.0 mi SSE 9.2 mph - 0.00 in   Clear
7:05 AM 26.6 °F 17.5 °F 23.0 °F 86% 30.22 in 10.0 mi SSE 9.2 mph - 0.00 in   Clear
7:25 AM 26.6 °F 18.2 °F 23.0 °F 86% 30.23 in 10.0 mi SE 8.1 mph - 0.00 in   Clear
7:45 AM 26.6 °F 18.2 °F 23.0 °F 86% 30.22 in 8.0 mi SE 8.1 mph - 0.00 in   Clear
8:05 AM 26.6 °F 19.1 °F 23.0 °F 86% 30.23 in 8.0 mi SE 6.9 mph - 0.00 in   Clear
8:25 AM 26.6 °F 18.2 °F 23.0 °F 86% 30.24 in 9.0 mi SE 8.1 mph - 0.00 in   Clear
8:45 AM 26.6 °F 18.2 °F 23.0 °F 86% 30.25 in 8.0 mi SSE 8.1 mph - 0.00 in   Clear
9:05 AM 26.6 °F 18.2 °F 23.0 °F 86% 30.26 in 8.0 mi SSE 8.1 mph - 0.00 in   Clear
9:25 AM 28.4 °F 19.7 °F 23.0 °F 80% 30.26 in 9.0 mi South 9.2 mph - 0.00 in   Clear
9:45 AM 28.4 °F 20.4 °F 23.0 °F 80% 30.27 in 9.0 mi South 8.1 mph - 0.00 in   Clear
10:05 AM 30.2 °F 22.6 °F 24.8 °F 80% 30.27 in 9.0 mi South 8.1 mph - 0.00 in   Clear
10:25 AM 30.2 °F 21.9 °F 24.8 °F 80% 30.27 in 9.0 mi South 9.2 mph - 0.00 in   Clear
10:45 AM 30.2 °F 22.6 °F 24.8 °F 80% 30.27 in 9.0 mi South 8.1 mph - 0.00 in   Clear
11:05 AM 32.0 °F 24.2 °F 26.6 °F 80% 30.27 in 9.0 mi South 9.2 mph - 0.00 in   Clear
11:25 AM 32.0 °F 24.2 °F 26.6 °F 80% 30.27 in 10.0 mi South 9.2 mph - 0.00 in   Clear
11:45 AM 33.8 °F 25.3 °F 28.4 °F 81% 30.25 in 9.0 mi South 11.5 mph - 0.00 in   Clear
12:05 PM 33.8 °F 25.8 °F 28.4 °F 81% 30.25 in 10.0 mi South 10.4 mph - 0.00 in   Clear
12:25 PM 33.8 °F 26.4 °F 28.4 °F 81% 30.24 in 10.0 mi South 9.2 mph - 0.00 in   Clear
12:45 PM 35.6 °F 28.0 °F 28.4 °F 75% 30.23 in 10.0 mi South 10.4 mph - 0.00 in   Clear
1:25 PM 37.4 °F 32.8 °F 30.2 °F 75% 30.22 in 10.0 mi South 5.8 mph - 0.00 in   Clear
1:45 PM 37.4 °F 31.4 °F 30.2 °F 75% 30.22 in 10.0 mi South 8.1 mph - 0.00 in   Clear
2:05 PM 37.4 °F 30.8 °F 28.4 °F 70% 30.21 in 10.0 mi South 9.2 mph - 0.00 in   Clear
2:45 PM 39.2 °F 32.0 °F 30.2 °F 70% 30.22 in 10.0 mi South 11.5 mph - 0.00 in   Clear
3:05 PM 39.2 °F 33.0 °F 30.2 °F 70% 30.22 in 10.0 mi South 9.2 mph - 0.00 in   Clear
3:25 PM 39.2 °F 33.6 °F 30.2 °F 70% 30.23 in 10.0 mi South 8.1 mph - 0.00 in   Clear
3:45 PM 37.4 °F 32.1 °F 30.2 °F 75% 30.23 in 10.0 mi South 6.9 mph - 0.00 in   Clear
4:05 PM 39.2 °F 33.6 °F 30.2 °F 70% 30.23 in 10.0 mi SSE 8.1 mph - 0.00 in   Clear
4:25 PM 37.4 °F 31.4 °F 30.2 °F 75% 30.22 in 10.0 mi SSE 8.1 mph - 0.00 in   Clear
4:45 PM 37.4 °F 31.4 °F 30.2 °F 75% 30.22 in 10.0 mi SSE 8.1 mph - 0.00 in   Clear
5:05 PM 35.6 °F 29.9 °F 30.2 °F 81% 30.23 in 10.0 mi SSE 6.9 mph - 0.00 in   Clear
5:25 PM 35.6 °F 29.9 °F 30.2 °F 81% 30.23 in 10.0 mi SSE 6.9 mph - 0.00 in   Clear
5:45 PM 35.6 °F 28.6 °F 30.2 °F 81% 30.22 in 10.0 mi SSE 9.2 mph - 0.00 in   Clear
6:05 PM 35.6 °F 28.6 °F 30.2 °F 81% 30.22 in 10.0 mi SSE 9.2 mph - 0.00 in   Clear
6:25 PM 33.8 °F 26.4 °F 30.2 °F 87% 30.22 in 10.0 mi SSE 9.2 mph - 0.00 in   Clear
6:45 PM 35.6 °F 28.6 °F 30.2 °F 81% 30.22 in 10.0 mi SSE 9.2 mph - 0.00 in   Clear
7:05 PM 35.6 °F 28.6 °F 30.2 °F 81% 30.23 in 10.0 mi SSE 9.2 mph - 0.00 in   Clear
7:25 PM 33.8 °F 27.0 °F 30.2 °F 87% 30.22 in 10.0 mi SSE 8.1 mph - 0.00 in   Clear
7:45 PM 33.8 °F 27.0 °F 30.2 °F 87% 30.22 in 10.0 mi SSE 8.1 mph - 0.00 in   Clear
8:05 PM 32.0 °F 23.6 °F 30.2 °F 93% 30.22 in 10.0 mi SSE 10.4 mph - 0.00 in   Clear
8:25 PM 33.8 °F 25.8 °F 30.2 °F 87% 30.21 in 10.0 mi SSE 10.4 mph - 0.00 in   Clear
8:45 PM 35.6 °F 28.0 °F 30.2 °F 81% 30.21 in 10.0 mi SSE 10.4 mph - 0.00 in   Clear
9:05 PM 35.6 °F 27.1 °F 32.0 °F 87% 30.20 in 10.0 mi SSE 12.7 mph - 0.00 in   Clear
9:25 PM 35.6 °F 27.5 °F 32.0 °F 87% 30.19 in 10.0 mi SSE 11.5 mph - 0.00 in   Clear
9:45 PM 35.6 °F 28.0 °F 32.0 °F 87% 30.19 in 10.0 mi SSE 10.4 mph - 0.00 in   Clear
10:05 PM 35.6 °F 27.1 °F 30.2 °F 81% 30.19 in 10.0 mi SSE 12.7 mph - 0.00 in   Clear
10:25 PM 35.6 °F 27.5 °F 30.2 °F 81% 30.19 in 10.0 mi SSE 11.5 mph - 0.00 in   Clear
10:45 PM 35.6 °F 27.1 °F 30.2 °F 81% 30.18 in 10.0 mi SSE 12.7 mph - 0.00 in   Clear
11:05 PM 35.6 °F 27.5 °F 30.2 °F 81% 30.18 in 10.0 mi SSE 11.5 mph - 0.00 in   Clear
11:25 PM 35.6 °F 27.5 °F 30.2 °F 81% 30.19 in 10.0 mi SSE 11.5 mph - 0.00 in   Clear